Location: Artiguedieu
(43.5000°N, 0.5454°E)
Time: 11:29:17
(UTC+00:00)

ATLAS 5 CENTAUR R/B - Pass Details

Date: 06 December 2020
Orbit: 520 x 1138 km, 63.4° (Epoch: 25 January)

Event Time Altitude Azimuth Distance (km) Brightness Sun altitude
Exits shadow 05:58:54 22° 281° (WNW) 1,279 2.5 -13.6°
Maximum altitude 06:00:32 28° 319° (NW) 1,109 2.4 -13.3°
Drops below altitude 10° 06:04:31 10° 20° (NNE) 2,055 4.2 -12.6°
Sets 06:07:16 0° 32° (NNE) 3,076 5.3 -12.2°
